[[{"header":{"parameterUnit":"m.s-1","parameterCategory":1,"la1":30.2991,"la2":30.254,"lo1":-89.0895,"lo2":-89.0444,"dy":0.0017,"dx":0.0017,"nx":28,"ny":28,"refTime":"2023-07-23T03:00:00:Z","depth":0,"parameterNumber":2,"parameterNumberName":"U-component_of_WINDS"},"data":[0,0,0,0,0,0,0,0,0,0,0,0,0,0,0,0,0,0,0,0,0,0,0,0,0,0,0,0,0,0,0,0,0,0,0,0,0,0,0,0,0,0,0,0,0,0,0,0,0,0,0,0,0,0,0,0,0,0,1.1723,1.1722,0,1.1629,1.1628,1.1627,1.1567,1.1567,1.1567,1.1566,1.1466,1.1463,1.1461,0,0,0,0,0,0,0,0,0,0,0,0,0,1.1847,1.1846,1.1723,1.1722,1.1721,1.163,1.1628,1.1627,1.1567,1.1567,1.1567,1.1566,1.1466,1.1464,1.1461,0,0,0,0,0,0,0,0,0,0,0,0,0,1.1778,1.1845,1.1723,1.168,1.1676,1.163,1.1628,1.1627,1.1568,1.1567,1.1566,1.1566,1.1467,1.1464,1.146,1.1449,0,0,1.145,1.1448,0,0,0,0,0,0,0,0,1.1782,1.1773,1.1688,1.1683,1.1678,1.161,1.1635,1.1567,1.1568,1.1608,1.1566,1.1566,1.1514,1.1506,1.149,1.1444,1.144,1.1449,1.1447,1.1446,1.1445,0,0,0,0,0,0,0,1.1786,1.1777,1.1686,1.1687,1.1681,1.1665,1.1654,1.1622,1.1565,1.1605,1.16,1.159,1.1511,1.1493,1.1487,1.1438,1.1449,1.1446,1.1444,1.1443,1.1379,1.1379,0,0,0,0,0,0,1.1799,1.1781,1.1689,1.1683,1.173,1.1663,1.1651,1.1632,1.1565,1.1555,1.1591,1.1588,1.15,1.1491,1.1483,1.1465,1.1446,1.1442,1.144,1.1379,1.1379,1.138,0,0,0,0,0,0,1.1802,1.1791,1.1693,1.1731,1.1717,1.1661,1.164,1.163,1.1613,1.1555,1.1544,1.1584,1.1499,1.1488,1.1458,1.1461,1.1441,1.1438,1.1378,1.1379,1.1379,1.143,0,0,0,0,0,0,1.1805,1.1792,1.1788,1.1731,1.1715,1.1671,1.164,1.1629,1.1607,1.1603,1.1545,1.1535,1.1498,1.1464,1.1455,1.1456,1.1435,1.1378,1.1378,1.1379,1.1428,1.1432,1.1436,0,0,0,0,0,1.181,1.1805,1.1788,1.1778,1.1709,1.1671,1.1662,1.162,1.1608,1.1603,1.1565,1.1537,1.1463,1.1461,1.1451,1.1451,1.1377,1.1378,1.1379,1.1426,1.1431,1.1436,0,0,0,0,0,0,1.1862,1.1797,1.1777,1.1754,1.1719,1.1661,1.1653,1.1627,1.1593,1.159,1.1539,1.1526,1.1502,1.1473,1.1473,1.1436,1.1416,1.1415,1.1456,1.146,1.1464,1.1471,1.1432,0,0,0,0,0,1.1871,1.1847,1.179,1.1775,1.1759,1.1709,1.1691,1.1662,1.1623,1.1607,1.1568,1.153,1.1498,1.1477,1.1445,1.1424,1.141,1.1418,1.1422,1.1426,1.1425,1.1412,1.1415,1.1383,1.1383,1.1383,0,0,1.1888,1.185,1.1837,1.1785,1.1754,1.1729,1.1697,1.1671,1.1652,1.1603,1.1573,1.1543,1.1496,1.1471,1.1458,1.1446,1.1432,1.1427,1.1431,1.1428,1.1414,1.1417,1.142,1.1383,1.1383,1.1383,0,0,1.1908,1.1877,1.1861,1.1831,1.1786,1.1753,1.175,1.1696,1.1675,1.1644,1.1607,1.1582,1.1529,1.1497,1.1475,1.1484,1.1456,1.1475,1.1496,1.1484,1.1486,1.1488,1.1492,1.1494,1.1475,1.1475,1.1475,0,1.1935,1.1897,1.1855,1.1833,1.1811,1.1767,1.175,1.1723,1.1669,1.1654,1.1642,1.1575,1.154,1.1507,1.151,1.1493,1.1487,1.1481,1.149,1.1491,1.1493,1.1495,1.1496,1.1477,1.1477,1.1477,1.1476,0,1.1933,1.1907,1.19,1.185,1.1827,1.1808,1.1762,1.1743,1.1718,1.1686,1.1655,1.1613,1.1572,1.1562,1.1535,1.1525,1.152,1.15,1.1479,1.1499,1.15,1.1501,1.1481,1.148,1.1479,1.1479,0,0,1.1981,1.191,1.1908,1.1885,1.1833,1.1811,1.179,1.1751,1.1736,1.17,1.168,1.1637,1.1618,1.1593,1.1562,1.1552,1.1562,1.1533,1.1531,1.154,1.1548,1.1563,1.1565,1.1544,1.1544,1.1544,1.1552,0,1.1992,1.1952,1.1915,1.1888,1.1864,1.1823,1.1804,1.1769,1.1739,1.1713,1.168,1.165,1.1628,1.1612,1.16,1.1564,1.1563,1.1562,1.1524,1.1523,1.1536,1.1566,1.1581,1.1591,1.1552,1.1552,1.1553,0,1.1999,1.1968,1.1939,1.189,1.1878,1.1862,1.1824,1.18,1.1759,1.1738,1.1711,1.168,1.1654,1.1637,1.1601,1.1601,1.1583,1.1563,1.1562,1.1556,1.1538,1.156,1.1593,1.1594,1.1553,1.1553,1.1553,0,1.2037,1.1987,1.1963,1.1945,1.1887,1.1877,1.1852,1.1811,1.1791,1.1757,1.1743,1.1706,1.1686,1.1658,1.1617,1.1609,1.1585,1.1565,1.1566,1.1567,1.1562,1.1563,1.1592,1.1552,1.1552,1.1552,1.1552,0,1.2053,1.2037,1.198,1.1965,1.1946,1.1903,1.1885,1.1856,1.1821,1.1799,1.1761,1.1742,1.169,1.1664,1.1632,1.1607,1.1597,1.1579,1.1571,1.1582,1.1585,1.1569,1.1567,1.1552,1.1552,1.1552,1.1552,0,1.2091,1.2052,1.2024,1.1972,1.1959,1.1947,1.1902,1.1886,1.1855,1.1829,1.182,1.177,1.1738,1.1695,1.1649,1.1627,1.1606,1.1593,1.162,1.1615,1.1619,1.1619,1.1639,1.1639,1.16,1.16,1.16,0,1.2104,1.2091,1.2039,1.2022,1.1999,1.1973,1.1953,1.191,1.1889,1.1843,1.1833,1.1798,1.1768,1.1718,1.1677,1.1642,1.1627,1.1637,1.1621,1.1634,1.1627,1.1628,1.1627,1.164,1.1641,1.1641,1.1642,0,1.213,1.2112,1.2084,1.2051,1.2027,1.1998,1.1967,1.1955,1.1906,1.1885,1.1852,1.1829,1.1783,1.1749,1.1708,1.1681,1.1653,1.1647,1.1646,1.1657,1.1673,1.1664,1.163,1.1646,1.1646,1.1646,1.1645,1.1645,1.2156,1.2143,1.2104,1.2075,1.2047,1.2019,1.2002,1.197,1.1942,1.1902,1.1879,1.1847,1.1807,1.175,1.1725,1.1699,1.1688,1.1686,1.1685,1.1685,1.1689,1.1678,1.1691,1.1691,1.1691,1.1691,1.1691,0,1.218,1.2154,1.2127,1.2086,1.2063,1.204,1.2005,1.1987,1.196,1.1926,1.1898,1.1861,1.1828,1.1785,1.1749,1.1736,1.1722,1.1728,1.1728,1.1722,1.1701,1.1706,1.174,1.174,1.174,1.174,1.174,1.174,1.219,1.2167,1.2144,1.2107,1.208,1.205,1.2032,1.2006,1.1979,1.1939,1.1912,1.1886,1.1848,1.1809,1.1778,1.1766,1.1754,1.1764,1.1748,1.1728,1.1724,1.172,1.1724,1.1762,1.1762,1.1772,1.1772,1.1772]},{"header":{"parameterUnit":"m.s-1","parameterCategory":1,"la1":30.2991,"la2":30.254,"lo1":-89.0895,"lo2":-89.0444,"dy":0.0017,"dx":0.0017,"nx":28,"ny":28,"refTime":"2023-07-23T03:00:00:Z","depth":0,"parameterNumber":3,"parameterNumberName":"V-component_of_WINDS"},"data":[0,0,0,0,0,0,0,0,0,0,0,0,0,0,0,0,0,0,0,0,0,0,0,0,0,0,0,0,0,0,0,0,0,0,0,0,0,0,0,0,0,0,0,0,0,0,0,0,0,0,0,0,0,0,0,0,0,0,-2.5632,-2.5633,0,-2.5743,-2.5744,-2.5745,-2.5746,-2.5744,-2.5743,-2.5741,-2.585,-2.5854,-2.5858,0,0,0,0,0,0,0,0,0,0,0,0,0,-2.5416,-2.542,-2.5632,-2.5633,-2.5635,-2.5743,-2.5744,-2.5746,-2.5746,-2.5744,-2.5742,-2.5741,-2.5849,-2.5854,-2.5859,0,0,0,0,0,0,0,0,0,0,0,0,0,-2.5517,-2.5422,-2.5632,-2.5648,-2.565,-2.5742,-2.5744,-2.5746,-2.5746,-2.5744,-2.5742,-2.574,-2.5847,-2.5853,-2.586,-2.5941,0,0,-2.5879,-2.5882,0,0,0,0,0,0,0,0,-2.5511,-2.5525,-2.5644,-2.5647,-2.565,-2.5728,-2.5708,-2.5811,-2.5747,-2.571,-2.5741,-2.5739,-2.5811,-2.582,-2.5846,-2.5946,-2.5951,-2.5879,-2.5883,-2.5886,-2.5888,0,0,0,0,0,0,0,-2.5504,-2.552,-2.5675,-2.5646,-2.5649,-2.5648,-2.566,-2.5728,-2.5771,-2.5713,-2.5713,-2.5726,-2.5812,-2.5839,-2.5848,-2.5952,-2.5879,-2.5885,-2.5889,-2.5891,-2.6125,-2.6128,0,0,0,0,0,0,-2.5494,-2.5514,-2.5672,-2.5679,-2.5574,-2.5654,-2.5667,-2.5705,-2.577,-2.5778,-2.5728,-2.5726,-2.583,-2.5841,-2.5852,-2.5952,-2.5886,-2.5892,-2.5896,-2.6123,-2.6126,-2.6129,0,0,0,0,0,0,-2.549,-2.5509,-2.5668,-2.5597,-2.5617,-2.566,-2.5702,-2.5708,-2.5736,-2.5782,-2.5789,-2.5748,-2.5828,-2.5843,-2.5919,-2.5955,-2.5895,-2.59,-2.612,-2.6124,-2.6127,-2.6152,0,0,0,0,0,0,-2.5484,-2.5507,-2.5539,-2.5597,-2.5621,-2.5734,-2.5705,-2.5712,-2.5747,-2.5746,-2.5803,-2.581,-2.5828,-2.591,-2.5926,-2.5963,-2.5905,-2.6117,-2.6122,-2.6126,-2.6148,-2.6156,-2.6162,0,0,0,0,0,-2.5476,-2.554,-2.5541,-2.556,-2.5662,-2.5736,-2.575,-2.577,-2.575,-2.5782,-2.5812,-2.5808,-2.5949,-2.5918,-2.5935,-2.5975,-2.6115,-2.6121,-2.6126,-2.6144,-2.6154,-2.6162,0,0,0,0,0,0,-2.5483,-2.5548,-2.5549,-2.5635,-2.5681,-2.5736,-2.5778,-2.578,-2.583,-2.5827,-2.5849,-2.5862,-2.5938,-2.5964,-2.5928,-2.6057,-2.6029,-2.6039,-2.6037,-2.6047,-2.6054,-2.6046,-2.5911,0,0,0,0,0,-2.5495,-2.5552,-2.5605,-2.5675,-2.5698,-2.5734,-2.5767,-2.5779,-2.5827,-2.5845,-2.588,-2.5925,-2.598,-2.6015,-2.6067,-2.6152,-2.6164,-2.6188,-2.6195,-2.6201,-2.6208,-2.6255,-2.6266,-2.6147,-2.6147,-2.6146,0,0,-2.552,-2.5562,-2.5596,-2.5678,-2.5714,-2.5771,-2.575,-2.5811,-2.5852,-2.5854,-2.5929,-2.5956,-2.6007,-2.6088,-2.6125,-2.6112,-2.6244,-2.6208,-2.6212,-2.6217,-2.6261,-2.6273,-2.6283,-2.615,-2.615,-2.6149,0,0,-2.5594,-2.5632,-2.5695,-2.5732,-2.5789,-2.5812,-2.5828,-2.5884,-2.5903,-2.5978,-2.5981,-2.603,-2.6123,-2.616,-2.6191,-2.6279,-2.6277,-2.6296,-2.6333,-2.6378,-2.6388,-2.6396,-2.6427,-2.6438,-2.6303,-2.6303,-2.6303,0,-2.5616,-2.5703,-2.5726,-2.5788,-2.5823,-2.5829,-2.5892,-2.5927,-2.5997,-2.6021,-2.6006,-2.6124,-2.6159,-2.6248,-2.627,-2.6295,-2.6312,-2.6289,-2.6385,-2.6394,-2.6402,-2.6432,-2.6443,-2.6305,-2.6305,-2.6305,-2.6304,0,-2.5728,-2.5789,-2.5832,-2.5902,-2.5942,-2.6004,-2.6036,-2.6074,-2.6083,-2.6107,-2.6184,-2.6227,-2.6288,-2.631,-2.6319,-2.6401,-2.6391,-2.638,-2.6352,-2.6415,-2.6443,-2.6455,-2.6308,-2.6307,-2.6306,-2.6306,0,0,-2.5809,-2.5891,-2.5907,-2.5939,-2.6002,-2.6048,-2.611,-2.6172,-2.6204,-2.6252,-2.6304,-2.6383,-2.6374,-2.6409,-2.6422,-2.6461,-2.6529,-2.6446,-2.6447,-2.6459,-2.6621,-2.6628,-2.6641,-2.6528,-2.653,-2.6532,-2.6617,0,-2.5889,-2.6001,-2.6024,-2.612,-2.6175,-2.6182,-2.6236,-2.628,-2.6305,-2.6355,-2.6382,-2.6438,-2.6422,-2.6443,-2.6482,-2.6512,-2.6561,-2.6506,-2.6575,-2.6577,-2.6562,-2.6656,-2.6664,-2.6742,-2.6628,-2.663,-2.6631,0,-2.5997,-2.605,-2.6152,-2.6208,-2.6233,-2.6281,-2.6339,-2.6387,-2.6437,-2.6452,-2.6492,-2.6501,-2.6564,-2.6534,-2.6622,-2.6584,-2.6613,-2.6632,-2.6636,-2.6642,-2.6607,-2.6665,-2.6767,-2.6778,-2.6649,-2.6648,-2.6646,0,-2.6045,-2.6141,-2.6215,-2.6242,-2.631,-2.6343,-2.6373,-2.6421,-2.6456,-2.6507,-2.6531,-2.6588,-2.6618,-2.6662,-2.6685,-2.6661,-2.6771,-2.6742,-2.6784,-2.6783,-2.6806,-2.6804,-2.6914,-2.6826,-2.6826,-2.6826,-2.6826,0,-2.6131,-2.6193,-2.6238,-2.6283,-2.6352,-2.6378,-2.6446,-2.6475,-2.6517,-2.6567,-2.6576,-2.6623,-2.6652,-2.6702,-2.6721,-2.679,-2.6804,-2.6817,-2.6821,-2.6816,-2.6814,-2.6835,-2.683,-2.6829,-2.6828,-2.6828,-2.6827,0,-2.6196,-2.6228,-2.6309,-2.6367,-2.6383,-2.6432,-2.6481,-2.6525,-2.655,-2.6614,-2.663,-2.667,-2.6729,-2.6758,-2.6831,-2.6844,-2.6922,-2.6923,-2.6906,-2.6907,-2.6947,-2.6943,-2.7073,-2.7091,-2.6992,-2.6993,-2.6994,0,-2.6248,-2.6297,-2.6361,-2.6396,-2.6427,-2.6483,-2.652,-2.6547,-2.6585,-2.6646,-2.6682,-2.6743,-2.6792,-2.6887,-2.6922,-2.6978,-2.698,-2.7022,-2.6988,-2.6982,-2.698,-2.6976,-2.6981,-2.7027,-2.7028,-2.7029,-2.703,0,-2.6338,-2.6352,-2.6406,-2.6467,-2.6511,-2.6559,-2.6606,-2.6634,-2.6668,-2.671,-2.6773,-2.6812,-2.6888,-2.6947,-2.7006,-2.7035,-2.7038,-2.704,-2.7053,-2.7048,-2.7036,-2.7042,-2.6922,-2.7037,-2.7036,-2.7036,-2.7035,-2.7035,-2.6398,-2.6442,-2.6494,-2.6554,-2.6593,-2.6637,-2.6681,-2.6713,-2.6766,-2.6831,-2.6843,-2.6909,-2.6958,-2.7038,-2.7068,-2.712,-2.711,-2.7128,-2.7132,-2.7136,-2.7138,-2.7029,-2.713,-2.713,-2.713,-2.713,-2.713,0,-2.6488,-2.6523,-2.6578,-2.6644,-2.6691,-2.6692,-2.6745,-2.6783,-2.6842,-2.6888,-2.6937,-2.7009,-2.7067,-2.7107,-2.7166,-2.7199,-2.7202,-2.7213,-2.7211,-2.7217,-2.7144,-2.7127,-2.721,-2.721,-2.721,-2.721,-2.721,-2.721,-2.6541,-2.6614,-2.6634,-2.6727,-2.676,-2.6827,-2.6856,-2.6897,-2.6934,-2.7014,-2.7063,-2.7089,-2.7132,-2.7195,-2.7248,-2.7258,-2.7278,-2.7291,-2.73,-2.7231,-2.7222,-2.7214,-2.7198,-2.7295,-2.7295,-2.7369,-2.737,-2.737]}]]